Location: Sungai Apap
(2.6167°N, 113.3833°E)
Time: 16:28:19
(UTC+00:00)

ARIANE 5 DEB (SYLDA) - Pass Details

Date: 25 May 2024
Orbit: 266 x 7627 km, 6.8° (Epoch: 12 June)

Event Time Altitude Azimuth Distance (km) Brightness Sun altitude
Rises 12:19:02 0° 260° (W) 6,940 9.2 -25.7°
Reaches altitude 10° 12:25:35 10° 257° (WSW) 4,603 8.1 -27.2°
Enters shadow 12:35:00 56° 210° (SSW) 1,060 4.1 -29.3°
